Probability
0 0 0 0 0 0 0 0 0 0 0 0 0 0 0 0 0 0 0 0 0 0 0 0 0 0 0 0 0 0 0 0 0 0 0 0 0 0 0 0 0 0 0
0 0 0 0 0 0 0 0 0 0 0 0 0 0 0 0 0 0 0 0 0 0 0 0 0 0 0 0 0 0 0 0 0 0 0 0 0 0 0 0 0 0 0
0 0 0 0 0 0 0 0 0 0 0 0 0 0 0 0 0 0 0 0 0 0 0 0 0 0 0 0 0 0 0 0 0 0 0 0 0 0 0 0 0 0 0
0 0 0 0 0 0 0 0 0 0 0 0 0 0 0 0 0 0 0 0 0 0 0 0 0 0 0 0 0 0 0 0 0 0 0 0 0 0 0 0 0 0 0
0 0 0 0 0 0 0 0 0 0 0 0 0 0 0 0 0 0 0 0 0 0 0 0 0 0 0 0 0 0 0 0 0 0 0 0 0 0 0 0 0 0 0
0 0 0 0 0 0 0 0 0 0 0 0 0 0 0 0 0 0 0 0 0 0 0 0 0 0 0 0 0 0 0 0 0 0 0 0 0 0 0 0 0 0 0
0 0 0 0 0 0 0 0 0 0 0 0 0 0 0 0 0 0 0 0 0 0 0 0 0 0 0 0 0 0 0 0 0 0 0 0 0 0 0 0 0 0 0
0 0 0 0 0 0 0 0 0 0 0 0 0 0 0 0 0 0 0 0 0 0 0 0 0 0 0 0 0 0 0 0 0 0 0 0 0 0 0 0 0 0 0
0 0 0 0 0 0 0 0 0 0 0 0 0 0 0 0 0 0 0 0 0 0 0 0 0 0 0 0 0 0 0 0 0 0 0 0 0 0 0 0 0 0 0
0 0 0 0 0 0 0 0 0 0 0 0 0 0 0 0 0 0 0 0 0 0 0 0 0 0 0 0 0 0 0 0 0 0 0 0 0 0 0 0 0 0 0
0 0 0 0 0 0 0 0 0 0 0 0 0 0 0 0 0 0 0 0 0 0 0 0 0 0 0 0 0 0 0 0 0 0 0 0 0 0 0 0 0 0 0
0 0 0 0 0 0 0 0 0 0 0 0 0 0 0 0 0 0 0 0 0 0 0 0 0 0 0 0 0 0 0 0 0 0 0 0 0 0 0 0 0 0 0
0 0 0 0 0 0 0 0 0 0 0 0 0 0 0 0 0 0 0 0 0 0 0 0 0 0 0 0 0 0 0 0 0 0 0 0 0 0 0 0 0 0 0
0 0 0 0 0 0 0 0 0 0 0 0 0 0 0 0 0 0 0 0 0 0 0 0 0 0 0 0 0 0 0 0 0 0 0 0 0 0 0 0 0 0 0
0 0 0 0 0 0 0 0 0 0 0 0 0 0 0 0 0 0 0 0 0 0 0 0 0 0 0 0 0 0 0 0 0 0 0 0 0 0 0 0 0 0 0
0 0 0 0 0 0 0 0 0 0 0 0 0 0 0 0 0 0 0 0 0 0 0 0 0 0 0 0 0 0 0 0 0 0 0 0 0 0 0 0 0 0 0
0 0 0 0 0 0 0 0 0 0 0 0 0 0 0 0 0 0 0 0 0 0 0 0 0 0 0 0 0 0 0 0 0 0 0 0 0 0 0 0 0 0 0
0 0 0 0 0 0 0 0 0 0 0 0 0 0 0 0 0 0 0 0 0 0 0 0 0 0 0 0 0 0 0 0 0 0 0 0 0 0 0 0 0 0 0
0 0 0 0 0 0 0 0 0 0 0 0 0 0 0 0 0 0 0 0 0 0 0 0 0 0 0 0 0 0 0 0 0 0 0 0 0 0 0 0 0 0 0
0 0 0 0 0 0 0 0 0 0 0 0 0 0 0 0 0 0 0 0 0 0 0 0 0 0 0 0 0 0 0 0 0 0 0 0 0 0 0 0 0 0 0
0 0 0 0 0 0 0 0 0 0 0 0 0 0 0 0 0 0 0 0 0 0 0 0 0 0 0 0 0 0 0 0 0 0 0 0 0 0 0 0 0 0 0
0 0 0 0 0 0 0 0 0 0 0 0 0 0 0 0 0 0 0 0 0 0 0 0 0 0 0 0 0 0 0 0 0 0 0 0 0 0 0 0 0 0 0
0 0 0 0 0 0 0 0 0 0 0 0 0 0 0 0 0 0 0 0 0 0 0 0 0 0 0 0 0 0 0 0 0 0 0 0 0 0 0 0 0 0 0
0 0 0 0 0 0 0 0 0 0 0 0 0 0 0 0 0 0 0 0 0 0 0 0 0 0 0 0 0 0 0 0 0 0 0 0 0 0 0 0 0 0 0
0 0 0 0 0 0 0 0 0 0 0 0 0 0 0 0 0 0 0 0 0 0 0 0 0 0 0 0 0 0 0 0 0 0 0 0 0 0 0 0 0 0 0
0 0 0 0 0 0 0 0 0 0 0 0 0 0 0 0 0 0 0 0 0 0 0 0 0 0 0 0 0 0 0 0 0 0 0 0 0 0 0 0 0 0 0
Height
5632 5633 5633 5634 5634 5634 5635 5635 5636 5636 5636 5636 5637 5637 5638 5638 5639 5640 5642 5644 5645 5648 5650 5652 5655 5657 5659 5661 5663 5666 5668 5671 5674 5678 5680 5682 5684 5686 5688 5689 5691 5692 5693
5623 5624 5624 5624 5625 5625 5625 5625 5626 5626 5626 5626 5626 5627 5628 5628 5629 5630 5632 5633 5635 5637 5639 5641 5643 5645 5648 5650 5652 5654 5657 5659 5661 5664 5667 5669 5671 5672 5674 5676 5677 5678 5680
5614 5614 5615 5615 5615 5616 5616 5616 5616 5616 5616 5616 5616 5617 5617 5618 5619 5620 5621 5623 5625 5626 5628 5630 5632 5634 5636 5638 5641 5643 5645 5647 5649 5651 5654 5656 5658 5659 5661 5662 5664 5665 5666
5604 5605 5605 5605 5606 5606 5606 5606 5606 5606 5606 5606 5606 5607 5607 5607 5608 5610 5611 5612 5614 5616 5618 5620 5622 5624 5626 5628 5630 5631 5633 5635 5637 5639 5641 5643 5645 5646 5647 5649 5651 5652 5653
5594 5595 5595 5596 5596 5596 5596 5596 5596 5596 5596 5596 5596 5596 5597 5597 5598 5599 5600 5602 5604 5606 5608 5610 5611 5613 5615 5617 5619 5620 5622 5623 5625 5626 5628 5630 5632 5633 5635 5636 5637 5638 5639
5584 5585 5585 5586 5586 5586 5586 5586 5586 5585 5585 5585 5585 5586 5586 5587 5588 5589 5590 5592 5594 5595 5597 5599 5601 5603 5604 5606 5608 5609 5611 5612 5613 5615 5617 5618 5619 5620 5622 5623 5624 5625 5626
5574 5575 5575 5575 5576 5576 5576 5576 5575 5575 5575 5575 5576 5576 5576 5577 5578 5579 5580 5582 5583 5585 5587 5588 5590 5592 5594 5595 5597 5598 5599 5600 5602 5603 5604 5605 5606 5608 5609 5610 5610 5611 5612
5565 5565 5565 5565 5565 5566 5566 5565 5565 5565 5565 5566 5566 5567 5567 5568 5569 5570 5571 5572 5574 5575 5576 5578 5580 5582 5583 5584 5586 5587 5588 5590 5590 5591 5593 5593 5593 5594 5595 5596 5596 5597 5598
5555 5555 5555 5555 5556 5556 5555 5556 5555 5556 5556 5557 5557 5558 5558 5559 5560 5560 5561 5562 5564 5565 5567 5568 5570 5571 5573 5574 5575 5577 5578 5578 5579 5579 5580 5580 5581 5581 5582 5582 5583 5583 5583
5545 5545 5545 5546 5546 5546 5546 5546 5546 5546 5547 5547 5548 5548 5549 5550 5550 5551 5552 5553 5555 5556 5557 5558 5560 5561 5562 5563 5564 5565 5567 5567 5568 5568 5568 5568 5568 5568 5568 5568 5568 5568 5568
5535 5536 5536 5536 5536 5536 5536 5536 5537 5537 5538 5538 5539 5540 5540 5541 5541 5542 5543 5544 5545 5546 5548 5549 5550 5550 5552 5552 5553 5554 5554 5555 5555 5556 5556 5556 5556 5556 5556 5555 5555 5554 5554
5525 5526 5527 5527 5527 5527 5527 5528 5528 5528 5529 5530 5531 5531 5532 5532 5533 5534 5534 5535 5536 5537 5538 5539 5540 5540 5541 5541 5542 5542 5543 5543 5543 5544 5544 5544 5544 5544 5544 5543 5542 5541 5541
5515 5516 5517 5518 5518 5519 5519 5519 5519 5520 5521 5521 5522 5523 5524 5524 5525 5525 5525 5526 5527 5528 5528 5529 5530 5530 5531 5531 5531 5531 5531 5531 5531 5532 5532 5532 5532 5532 5531 5531 5530 5529 5528
5506 5507 5508 5508 5509 5510 5510 5510 5511 5512 5512 5513 5514 5514 5515 5515 5516 5516 5517 5517 5518 5518 5519 5519 5520 5520 5520 5520 5520 5520 5520 5520 5520 5520 5520 5520 5520 5520 5519 5518 5518 5516 5515
5497 5498 5499 5499 5500 5501 5501 5502 5502 5503 5504 5505 5506 5506 5507 5507 5508 5508 5508 5509 5509 5509 5509 5510 5510 5510 5510 5510 5510 5510 5509 5509 5509 5509 5509 5509 5508 5508 5507 5507 5506 5504 5503
5488 5489 5490 5491 5491 5492 5493 5493 5494 5495 5495 5496 5496 5497 5498 5498 5499 5499 5499 5499 5499 5500 5500 5500 5500 5500 5500 5499 5499 5499 5499 5498 5498 5498 5498 5497 5497 5497 5496 5495 5494 5493 5492
5479 5480 5481 5482 5483 5484 5484 5485 5486 5487 5487 5487 5488 5488 5489 5489 5490 5490 5490 5490 5490 5490 5490 5490 5489 5489 5489 5489 5489 5488 5488 5488 5487 5487 5486 5486 5486 5485 5485 5484 5482 5481 5480
5470 5471 5473 5474 5474 5475 5476 5477 5478 5478 5479 5479 5480 5480 5480 5481 5481 5481 5480 5480 5480 5480 5479 5479 5479 5479 5479 5478 5478 5478 5477 5477 5476 5476 5475 5475 5474 5474 5473 5472 5471 5470 5468
5462 5463 5464 5465 5466 5467 5467 5468 5469 5470 5470 5471 5471 5471 5472 5471 5471 5471 5471 5471 5470 5470 5470 5469 5469 5468 5468 5468 5467 5467 5467 5467 5466 5465 5465 5464 5464 5463 5462 5461 5460 5459 5457
5453 5455 5456 5457 5457 5458 5459 5460 5460 5461 5461 5462 5462 5462 5462 5462 5462 5461 5461 5461 5460 5460 5459 5459 5458 5457 5457 5457 5457 5456 5456 5456 5455 5455 5454 5453 5453 5452 5451 5450 5449 5448 5447
5445 5446 5447 5448 5449 5450 5450 5451 5452 5452 5453 5453 5453 5453 5453 5453 5452 5452 5451 5451 5450 5449 5449 5448 5448 5447 5447 5447 5446 5446 5446 5445 5445 5444 5443 5443 5442 5441 5440 5439 5438 5437 5436
5436 5438 5439 5439 5440 5441 5441 5442 5443 5443 5444 5444 5444 5443 5443 5443 5442 5442 5441 5440 5440 5439 5439 5438 5438 5437 5436 5436 5436 5435 5435 5434 5434 5433 5433 5432 5431 5430 5429 5428 5427 5426 5425
5428 5429 5430 5431 5431 5432 5433 5433 5434 5434 5435 5435 5435 5434 5434 5433 5432 5432 5431 5430 5429 5429 5428 5428 5427 5427 5426 5426 5425 5425 5424 5424 5423 5422 5422 5421 5420 5419 5418 5417 5416 5415 5414
5419 5420 5421 5422 5422 5423 5424 5424 5425 5425 5425 5425 5425 5425 5424 5423 5422 5421 5420 5420 5419 5419 5418 5418 5417 5417 5416 5415 5415 5414 5413 5413 5412 5411 5411 5410 5409 5408 5407 5406 5405 5405 5404
5410 5411 5412 5412 5413 5414 5414 5415 5415 5416 5416 5415 5415 5415 5414 5413 5412 5411 5411 5410 5410 5409 5408 5408 5407 5406 5406 5405 5404 5403 5403 5402 5401 5400 5399 5399 5398 5397 5396 5396 5395 5394 5394
5401 5402 5402 5403 5404 5404 5405 5405 5405 5406 5406 5406 5405 5405 5404 5403 5403 5402 5401 5401 5400 5399 5399 5398 5397 5396 5395 5394 5393 5393 5392 5391 5390 5390 5389 5388 5388 5387 5386 5386 5385 5384 5383
Wind_Speed
31 32 33 33 32 33 33 33 34 35 36 36 36 37 37 37 37 38 39 38 39 39 41 42 44 44 45 45 47 48 48 48 48 48 49 50 50 51 51 51 51 51 51
32 32 33 33 33 33 33 34 34 35 35 36 37 37 37 37 37 37 38 38 39 40 41 42 42 43 43 45 46 47 47 47 47 48 49 49 50 52 52 52 51 51 52
33 33 33 33 34 34 34 34 34 34 34 35 36 36 37 36 37 37 38 39 40 40 40 41 41 42 42 42 43 45 45 46 47 48 48 49 50 50 51 51 51 52 52
33 33 33 33 34 34 34 34 35 35 35 35 35 35 36 36 36 37 38 39 40 40 40 41 42 41 42 42 42 43 44 45 46 47 47 48 49 49 50 50 51 52 52
33 34 34 34 34 34 34 35 35 35 35 36 36 36 36 36 36 37 37 38 39 40 41 41 42 42 41 42 42 43 44 44 44 45 46 46 48 48 49 49 50 51 51
33 34 34 35 35 35 35 35 35 35 35 35 35 35 35 36 36 36 36 37 38 39 40 40 41 42 42 42 42 42 43 43 43 43 45 46 48 48 49 49 50 50 51
34 35 35 35 35 35 35 35 35 34 34 34 34 33 33 34 34 35 36 36 37 38 38 39 40 41 42 42 42 42 42 42 42 43 45 45 47 48 49 50 50 50 50
34 34 34 34 34 34 34 34 34 33 32 32 32 32 32 32 34 34 35 35 36 36 37 38 39 40 40 41 41 41 41 41 42 43 44 45 46 48 48 49 49 49 49
33 33 33 33 33 33 32 32 32 32 31 31 31 31 31 32 32 33 35 35 35 36 36 37 38 38 39 39 40 40 40 41 42 42 43 45 46 47 47 47 48 48 48
33 32 32 32 32 31 31 31 31 30 31 31 31 31 32 32 32 33 34 34 34 34 35 36 36 37 38 39 40 41 41 42 42 42 43 44 44 45 45 46 47 47 48
32 31 31 31 30 30 30 30 30 30 30 30 30 31 31 32 32 32 33 34 34 34 35 35 36 37 38 39 40 41 41 42 42 42 42 42 43 44 44 45 45 46 47
32 32 31 30 30 30 30 29 29 30 30 30 29 29 30 30 31 31 32 33 34 34 34 35 36 36 37 38 39 40 40 40 40 41 41 41 42 43 43 44 44 45 47
32 31 31 30 29 29 29 29 29 29 30 29 29 30 30 30 31 31 31 32 33 34 34 34 35 35 36 36 37 37 38 38 39 40 40 41 41 42 43 43 44 45 46
31 31 31 30 29 29 29 28 28 28 28 29 29 29 29 30 30 31 31 32 32 33 34 34 34 35 35 35 36 37 37 38 38 38 39 39 40 41 42 42 42 43 43
30 30 30 29 28 28 28 28 28 28 28 28 29 29 29 29 29 30 31 31 32 32 32 33 33 34 35 35 35 36 37 38 38 38 38 39 39 40 40 40 40 41 42
29 29 29 29 28 28 27 27 27 27 27 28 29 29 29 29 30 30 31 31 31 32 32 32 33 33 34 35 36 36 37 37 37 37 37 38 38 39 39 38 39 40 41
28 28 28 28 28 27 27 27 27 28 28 28 28 29 29 30 31 31 31 32 32 32 32 32 33 33 33 34 34 35 36 36 36 36 37 37 37 38 38 38 39 40 40
26 27 27 27 27 26 26 27 28 28 28 29 29 29 29 30 30 31 32 32 32 32 32 33 33 33 34 34 34 34 34 35 35 35 36 36 36 37 37 38 38 38 37
27 26 27 27 26 26 27 27 27 28 28 29 30 30 31 31 30 31 31 31 32 32 33 33 33 34 34 34 34 34 34 34 35 35 35 35 36 36 36 36 36 36 35
27 27 27 26 26 26 27 27 28 28 28 29 30 30 31 31 31 32 32 32 33 33 33 33 33 34 34 34 34 34 34 34 35 35 35 35 36 35 35 35 35 35 34
26 26 26 27 27 27 28 28 28 29 29 30 30 30 30 31 32 33 33 33 33 33 33 33 33 33 33 33 33 33 34 34 35 35 35 35 35 35 34 34 35 35 35
26 26 27 27 28 28 28 29 29 29 29 30 30 30 31 32 32 33 33 33 33 33 33 34 34 34 33 34 34 33 33 33 34 35 35 35 35 35 35 35 35 35 35
27 27 28 28 29 29 29 29 29 29 30 30 30 31 31 32 32 33 33 33 33 33 33 33 33 33 33 33 33 33 33 34 34 34 34 34 35 35 35 35 35 34 34
27 28 28 29 29 29 29 29 30 30 30 30 31 31 31 31 32 32 31 31 31 32 32 32 32 32 32 32 32 33 33 34 34 35 35 34 34 35 35 34 34 34 33
28 28 29 29 29 29 30 30 30 30 30 31 31 31 31 30 30 30 30 30 31 31 31 31 31 31 32 32 32 33 33 34 34 34 34 34 33 33 33 33 33 33 33
28 28 29 29 29 29 29 30 30 31 31 31 31 31 30 30 30 30 30 30 31 31 31 31 31 31 31 32 32 33 33 33 32 32 32 32 32 31 31 32 32 31 32
Wind_Direction
264 264 264 265 266 267 267 267 267 268 267 267 267 266 266 266 264 261 261 259 258 256 255 255 256 255 253 255 255 255 255 256 257 256 256 257 258 259 260 261 261 263 264
264 263 264 265 267 267 268 267 268 268 267 267 268 268 266 265 263 260 259 258 256 255 254 255 255 254 253 255 255 255 256 257 258 257 257 257 258 259 260 261 262 263 265
265 264 265 266 267 268 268 269 270 270 269 268 269 268 265 264 263 261 260 258 256 255 254 254 254 254 254 255 256 257 257 258 259 259 258 258 259 259 260 261 262 264 265
265 265 265 267 268 269 269 271 271 271 271 270 269 268 265 264 263 261 260 257 256 256 255 255 255 256 256 257 258 258 258 259 260 259 259 259 259 260 260 262 263 264 266
265 265 266 267 268 269 270 271 271 271 271 271 270 268 265 264 263 262 260 258 257 257 256 256 256 257 258 258 259 259 261 261 261 261 260 261 260 260 261 263 264 265 266
267 266 267 267 268 269 270 271 271 271 271 270 269 267 264 264 263 262 261 260 259 257 256 256 256 256 256 258 260 261 262 263 263 262 261 262 261 262 262 264 266 267 268
267 267 268 268 269 269 270 270 271 271 270 268 266 265 263 262 263 262 261 261 260 259 258 256 255 256 256 258 259 262 263 264 264 263 264 264 264 264 264 265 267 268 270
268 268 268 269 270 271 271 270 270 271 268 267 266 265 263 262 262 262 261 261 260 260 259 258 257 257 257 258 259 261 263 263 264 265 266 266 266 266 267 268 269 270 271
268 268 267 269 269 270 270 270 270 268 267 267 267 266 265 263 262 262 261 263 263 261 260 260 260 259 259 259 260 262 263 263 265 267 268 268 268 268 269 270 271 272 272
268 267 268 268 269 270 270 270 269 268 267 267 267 267 265 264 264 264 263 263 263 262 261 260 261 261 262 262 262 263 264 265 267 268 268 269 270 270 271 272 272 273 274
267 267 268 269 269 270 270 269 268 268 267 267 266 266 266 265 265 265 264 263 263 263 262 262 262 262 263 265 266 267 267 267 267 268 269 270 271 272 273 274 274 276 276
265 266 268 269 270 270 270 269 268 267 265 264 265 265 266 267 267 266 264 263 264 265 264 264 264 265 266 268 269 270 269 269 268 269 270 271 273 273 274 275 276 277 278
264 265 267 268 269 269 269 268 267 266 264 263 264 265 266 266 266 267 265 265 265 267 268 267 267 266 268 269 271 272 272 273 272 272 272 273 274 274 275 276 277 278 279
264 265 266 267 267 268 267 266 266 265 264 263 265 265 265 266 267 268 267 267 267 267 268 268 269 268 269 271 273 274 274 275 275 274 274 274 275 276 276 277 277 279 279
262 264 265 266 266 266 265 264 264 264 263 265 265 265 266 267 268 268 268 268 269 269 269 270 270 271 271 272 274 275 276 276 275 275 274 275 276 277 277 277 278 278 280
261 263 264 265 264 263 262 262 262 263 264 265 266 266 266 266 268 269 269 269 269 269 270 271 273 274 273 273 274 274 275 275 275 275 275 275 275 276 277 277 278 279 281
259 261 262 262 262 261 260 260 261 261 263 265 265 266 267 268 269 270 271 271 271 272 273 273 274 274 274 274 274 274 274 274 275 276 276 275 275 276 277 278 279 280 281
258 259 260 261 261 261 261 260 260 260 262 264 264 266 269 270 271 272 274 275 275 275 275 275 274 274 274 274 274 274 274 275 276 276 276 275 276 277 278 279 280 280 281
258 259 261 262 261 261 261 260 260 261 262 263 265 267 269 271 273 275 275 276 276 276 276 276 275 275 274 274 274 274 274 275 276 276 276 277 277 278 279 279 280 280 281
257 259 260 261 261 261 262 262 262 263 264 266 268 270 272 273 275 276 277 277 277 277 276 276 276 276 276 276 275 275 275 275 276 276 277 277 278 278 279 280 280 280 281
256 258 260 261 261 262 262 263 264 265 267 268 270 273 274 276 277 278 278 278 278 277 277 277 277 276 276 275 275 276 276 276 276 276 276 276 277 277 278 279 280 280 280
257 258 260 261 261 263 263 263 264 266 268 269 271 274 276 277 278 278 278 277 277 277 277 277 277 277 276 275 274 275 276 276 276 277 277 277 277 278 279 280 281 280 281
258 259 260 261 262 262 262 263 265 267 269 271 273 276 277 278 279 279 278 277 276 277 277 277 277 276 276 275 275 275 276 277 278 278 278 278 279 279 280 280 280 280 280
260 261 263 264 264 264 264 265 266 268 271 273 275 277 278 279 279 279 278 277 276 276 276 276 276 276 277 276 276 276 277 278 278 279 279 279 279 279 279 279 279 279 279
262 263 265 265 265 265 265 266 267 269 271 273 274 276 278 278 278 277 276 275 276 276 276 276 277 278 277 277 277 277 278 279 279 278 278 278 278 278 278 278 278 277 278
263 264 265 265 265 266 266 267 268 269 271 272 273 275 276 276 276 276 276 275 276 276 275 276 278 278 278 278 277 277 278 278 278 278 278 278 278 279 279 279 279 278 278